Time,TemperatureF,DewpointF,PressureIn,WindDirection,WindDirectionDegrees,WindSpeedMPH,WindSpeedGustMPH,Humidity,HourlyPrecipIn,Conditions,Clouds,dailyrainin,SolarRadiationWatts/m^2,SoftwareType,DateUTC
2013-04-28 00:01:00,42.3,14.6,30.21,WNW,296,14.0,16.0,32,0.00,,,0.00,0,WeatherCatV1.15B25,2013-04-28 06:01:00,
2013-04-28 00:06:00,42.3,15.3,30.21,WNW,294,12.0,14.0,33,0.00,,,0.00,0,WeatherCatV1.15B25,2013-04-28 06:06:00,
2013-04-28 00:11:00,42.1,15.1,30.21,NW,319,10.0,16.0,33,0.00,,,0.00,0,WeatherCatV1.15B25,2013-04-28 06:11:00,
2013-04-28 00:16:00,41.9,14.9,30.20,WNW,296,9.0,17.0,33,0.00,,,0.00,0,WeatherCatV1.15B25,2013-04-28 06:16:00,
2013-04-28 00:21:00,41.9,15.6,30.20,West,263,14.0,14.0,34,0.00,,,0.00,0,WeatherCatV1.15B25,2013-04-28 06:21:00,
2013-04-28 00:26:00,41.6,15.3,30.20,WNW,288,8.0,19.0,34,0.00,,,0.00,0,WeatherCatV1.15B25,2013-04-28 06:26:00,
2013-04-28 00:31:00,41.6,15.3,30.20,West,261,17.0,18.0,34,0.00,,,0.00,0,WeatherCatV1.15B25,2013-04-28 06:31:00,
2013-04-28 00:36:00,41.5,15.9,30.20,West,272,11.0,18.0,35,0.00,,,0.00,0,WeatherCatV1.15B25,2013-04-28 06:36:00,
2013-04-28 00:41:00,41.2,15.6,30.20,WNW,302,11.0,18.0,35,0.00,,,0.00,0,WeatherCatV1.15B25,2013-04-28 06:41:00,
2013-04-28 00:46:00,40.9,15.4,30.20,WNW,301,12.0,18.0,35,0.00,,,0.00,0,WeatherCatV1.15B25,2013-04-28 06:46:00,
2013-04-28 00:51:00,40.9,15.4,30.20,WNW,285,9.0,16.0,35,0.00,,,0.00,0,WeatherCatV1.15B25,2013-04-28 06:51:00,
2013-04-28 00:56:00,40.8,15.9,30.20,NW,306,13.0,17.0,36,0.00,,,0.00,0,WeatherCatV1.15B25,2013-04-28 06:56:00,
2013-04-28 01:01:00,40.6,15.8,30.20,NW,318,10.0,18.0,36,0.00,,,0.00,0,WeatherCatV1.15B25,2013-04-28 07:01:00,
2013-04-28 01:06:00,40.8,15.9,30.20,NNW,328,12.0,16.0,36,0.00,,,0.00,0,WeatherCatV1.15B25,2013-04-28 07:06:00,
2013-04-28 01:11:00,40.6,15.1,30.20,NW,325,12.0,12.0,35,0.00,,,0.00,0,WeatherCatV1.15B25,2013-04-28 07:11:00,
2013-04-28 01:16:00,40.6,15.8,30.20,NW,312,16.0,18.0,36,0.00,,,0.00,0,WeatherCatV1.15B25,2013-04-28 07:16:00,
2013-04-28 01:21:00,40.6,15.1,30.20,WNW,295,11.0,18.0,35,0.00,,,0.00,0,WeatherCatV1.15B25,2013-04-28 07:21:00,
2013-04-28 01:26:00,40.6,15.1,30.20,NW,309,17.0,17.0,35,0.00,,,0.00,0,WeatherCatV1.15B25,2013-04-28 07:26:00,
2013-04-28 01:31:00,41.1,14.9,30.20,NNW,329,12.0,17.0,34,0.00,,,0.00,0,WeatherCatV1.15B25,2013-04-28 07:31:00,
2013-04-28 01:36:00,41.2,15.6,30.20,WNW,295,14.0,18.0,35,0.00,,,0.00,0,WeatherCatV1.15B25,2013-04-28 07:36:00,
2013-04-28 01:41:00,40.9,15.4,30.20,West,263,10.0,17.0,35,0.00,,,0.00,0,WeatherCatV1.15B25,2013-04-28 07:41:00,
2013-04-28 01:46:00,40.8,15.3,30.19,WNW,295,14.0,17.0,35,0.00,,,0.00,0,WeatherCatV1.15B25,2013-04-28 07:46:00,
2013-04-28 01:51:00,40.6,15.8,30.19,WNW,288,10.0,17.0,36,0.00,,,0.00,0,WeatherCatV1.15B25,2013-04-28 07:51:00,
2013-04-28 01:56:00,40.3,15.5,30.19,NW,304,7.0,14.0,36,0.00,,,0.00,0,WeatherCatV1.15B25,2013-04-28 07:56:00,
2013-04-28 02:01:00,40.1,15.9,30.19,West,275,11.0,16.0,37,0.00,,,0.00,0,WeatherCatV1.15B25,2013-04-28 08:01:00,
2013-04-28 02:06:00,39.9,15.1,30.19,NW,308,12.0,16.0,36,0.00,,,0.00,0,WeatherCatV1.15B25,2013-04-28 08:06:00,
2013-04-28 02:11:00,40.1,15.9,30.19,NNW,329,12.0,14.0,37,0.00,,,0.00,0,WeatherCatV1.15B25,2013-04-28 08:11:00,
2013-04-28 02:16:00,39.9,15.1,30.19,NW,323,10.0,12.0,36,0.00,,,0.00,0,WeatherCatV1.15B25,2013-04-28 08:16:00,
2013-04-28 02:21:00,39.9,15.1,30.19,West,274,11.0,14.0,36,0.00,,,0.00,0,WeatherCatV1.15B25,2013-04-28 08:21:00,
2013-04-28 02:26:00,40.1,15.3,30.19,WNW,287,14.0,16.0,36,0.00,,,0.00,0,WeatherCatV1.15B25,2013-04-28 08:26:00,
2013-04-28 02:31:00,40.3,14.8,30.18,WNW,294,7.0,12.0,35,0.00,,,0.00,0,WeatherCatV1.15B25,2013-04-28 08:31:00,
2013-04-28 02:36:00,40.5,15.0,30.18,WNW,292,7.0,9.0,35,0.00,,,0.00,0,WeatherCatV1.15B25,2013-04-28 08:36:00,
2013-04-28 02:41:00,40.6,14.5,30.18,WNW,285,6.0,12.0,34,0.00,,,0.00,0,WeatherCatV1.15B25,2013-04-28 08:41:00,
2013-04-28 02:46:00,40.8,14.6,30.18,WNW,295,8.0,11.0,34,0.00,,,0.00,0,WeatherCatV1.15B25,2013-04-28 08:46:00,
2013-04-28 02:51:00,40.9,14.0,30.18,WNW,282,11.0,12.0,33,0.00,,,0.00,0,WeatherCatV1.15B25,2013-04-28 08:51:00,
2013-04-28 02:56:00,41.2,14.3,30.18,West,278,7.0,13.0,33,0.00,,,0.00,0,WeatherCatV1.15B25,2013-04-28 08:56:00,
2013-04-28 03:01:00,41.2,14.3,30.18,WNW,288,9.0,12.0,33,0.00,,,0.00,0,WeatherCatV1.15B25,2013-04-28 09:01:00,
2013-04-28 03:06:00,41.1,14.9,30.18,West,275,7.0,12.0,34,0.00,,,0.00,0,WeatherCatV1.15B25,2013-04-28 09:06:00,
2013-04-28 03:11:00,40.6,15.1,30.18,WNW,287,11.0,12.0,35,0.00,,,0.00,0,WeatherCatV1.15B25,2013-04-28 09:11:00,
2013-04-28 03:16:00,40.5,15.0,30.18,WNW,288,14.0,14.0,35,0.00,,,0.00,0,WeatherCatV1.15B25,2013-04-28 09:16:00,
2013-04-28 03:21:00,40.5,14.4,30.18,WNW,298,17.0,18.0,34,0.00,,,0.00,0,WeatherCatV1.15B25,2013-04-28 09:21:00,
2013-04-28 03:26:00,40.5,14.4,30.18,WNW,282,13.0,18.0,34,0.00,,,0.00,0,WeatherCatV1.15B25,2013-04-28 09:26:00,
2013-04-28 03:31:00,40.5,14.4,30.18,WNW,287,20.0,20.0,34,0.00,,,0.00,0,WeatherCatV1.15B25,2013-04-28 09:31:00,
2013-04-28 03:36:00,40.3,14.8,30.18,WNW,289,14.0,18.0,35,0.00,,,0.00,0,WeatherCatV1.15B25,2013-04-28 09:36:00,
2013-04-28 03:41:00,40.1,14.7,30.18,WNW,292,13.0,17.0,35,0.00,,,0.00,0,WeatherCatV1.15B25,2013-04-28 09:41:00,
2013-04-28 03:46:00,39.9,15.1,30.18,WNW,287,14.0,19.0,36,0.00,,,0.00,0,WeatherCatV1.15B25,2013-04-28 09:46:00,
2013-04-28 03:51:00,39.8,15.0,30.18,WNW,289,19.0,20.0,36,0.00,,,0.00,0,WeatherCatV1.15B25,2013-04-28 09:51:00,
2013-04-28 03:56:00,39.9,14.5,30.18,West,270,19.0,19.0,35,0.00,,,0.00,0,WeatherCatV1.15B25,2013-04-28 09:56:00,
2013-04-28 04:01:00,39.9,14.5,30.17,WSW,254,13.0,18.0,35,0.00,,,0.00,0,WeatherCatV1.15B25,2013-04-28 10:01:00,
2013-04-28 04:06:00,39.9,14.5,30.17,WNW,284,15.0,15.0,35,0.00,,,0.00,0,WeatherCatV1.15B25,2013-04-28 10:06:00,
2013-04-28 04:11:00,39.8,14.4,30.17,WSW,244,10.0,12.0,35,0.00,,,0.00,0,WeatherCatV1.15B25,2013-04-28 10:11:00,
2013-04-28 04:16:00,39.6,14.9,30.18,West,278,7.0,10.0,36,0.00,,,0.00,0,WeatherCatV1.15B25,2013-04-28 10:16:00,
2013-04-28 04:21:00,39.5,14.8,30.18,West,270,5.0,8.0,36,0.00,,,0.00,0,WeatherCatV1.15B25,2013-04-28 10:21:00,
2013-04-28 04:26:00,39.1,15.1,30.18,South,181,2.0,8.0,37,0.00,,,0.00,0,WeatherCatV1.15B25,2013-04-28 10:26:00,
2013-04-28 04:31:00,38.6,14.6,30.18,South,181,2.0,3.0,37,0.00,,,0.00,0,WeatherCatV1.15B25,2013-04-28 10:31:00,
2013-04-28 04:36:00,38.6,14.6,30.18,West,275,8.0,11.0,37,0.00,,,0.00,0,WeatherCatV1.15B25,2013-04-28 10:36:00,
2013-04-28 04:41:00,38.8,14.8,30.18,West,270,9.0,12.0,37,0.00,,,0.00,0,WeatherCatV1.15B25,2013-04-28 10:41:00,
2013-04-28 04:46:00,39.2,13.9,30.17,WNW,288,15.0,16.0,35,0.00,,,0.00,0,WeatherCatV1.15B25,2013-04-28 10:46:00,
2013-04-28 04:51:00,39.6,14.2,30.17,NW,305,9.0,13.0,35,0.00,,,0.00,0,WeatherCatV1.15B25,2013-04-28 10:51:00,
2013-04-28 04:56:00,40.2,14.1,30.17,West,281,11.0,17.0,34,0.00,,,0.00,0,WeatherCatV1.15B25,2013-04-28 10:56:00,
2013-04-28 05:01:00,40.2,14.1,30.17,NW,306,11.0,16.0,34,0.00,,,0.00,0,WeatherCatV1.15B25,2013-04-28 11:01:00,
2013-04-28 05:06:00,40.3,14.2,30.17,WNW,287,14.0,15.0,34,0.00,,,0.00,0,WeatherCatV1.15B25,2013-04-28 11:06:00,
2013-04-28 05:11:00,40.5,14.4,30.17,WNW,288,10.0,16.0,34,0.00,,,0.00,0,WeatherCatV1.15B25,2013-04-28 11:11:00,
2013-04-28 05:16:00,40.5,13.7,30.17,WNW,296,14.0,18.0,33,0.00,,,0.00,0,WeatherCatV1.15B25,2013-04-28 11:16:00,
2013-04-28 05:21:00,40.3,13.5,30.17,WNW,301,18.0,18.0,33,0.00,,,0.00,0,WeatherCatV1.15B25,2013-04-28 11:21:00,
2013-04-28 05:26:00,40.5,13.7,30.17,WNW,289,13.0,17.0,33,0.00,,,0.00,0,WeatherCatV1.15B25,2013-04-28 11:26:00,
2013-04-28 05:31:00,40.6,13.8,30.17,NW,309,14.0,18.0,33,0.00,,,0.00,0,WeatherCatV1.15B25,2013-04-28 11:31:00,
2013-04-28 05:36:00,40.8,13.3,30.17,NW,316,9.0,16.0,32,0.00,,,0.00,0,WeatherCatV1.15B25,2013-04-28 11:36:00,
2013-04-28 05:41:00,40.6,13.1,30.17,WNW,302,10.0,14.0,32,0.00,,,0.00,0,WeatherCatV1.15B25,2013-04-28 11:41:00,
2013-04-28 05:46:00,40.5,13.7,30.17,NW,308,11.0,13.0,33,0.00,,,0.00,0,WeatherCatV1.15B25,2013-04-28 11:46:00,
2013-04-28 05:51:00,40.1,14.0,30.17,West,271,7.0,8.0,34,0.00,,,0.00,0,WeatherCatV1.15B25,2013-04-28 11:51:00,
2013-04-28 05:56:00,39.8,13.7,30.17,WNW,292,10.0,14.0,34,0.00,,,0.00,0,WeatherCatV1.15B25,2013-04-28 11:56:00,
2013-04-28 06:01:00,39.6,13.6,30.17,West,265,7.0,8.0,34,0.00,,,0.00,0,WeatherCatV1.15B25,2013-04-28 12:01:00,
2013-04-28 06:06:00,39.5,13.5,30.17,NW,313,6.0,8.0,34,0.00,,,0.00,0,WeatherCatV1.15B25,2013-04-28 12:06:00,
2013-04-28 06:11:00,39.5,13.5,30.17,NW,309,6.0,7.0,34,0.00,,,0.00,5,WeatherCatV1.15B25,2013-04-28 12:11:00,
2013-04-28 06:16:00,39.5,13.5,30.17,WNW,301,2.0,7.0,34,0.00,,,0.00,9,WeatherCatV1.15B25,2013-04-28 12:16:00,
2013-04-28 06:21:00,39.3,14.0,30.17,NNW,342,7.0,7.0,35,0.00,,,0.00,12,WeatherCatV1.15B25,2013-04-28 12:21:00,
2013-04-28 06:26:00,39.5,14.1,30.17,NNW,340,3.0,5.0,35,0.00,,,0.00,16,WeatherCatV1.15B25,2013-04-28 12:26:00,
2013-04-28 06:31:00,39.3,14.0,30.17,West,278,5.0,7.0,35,0.00,,,0.00,21,WeatherCatV1.15B25,2013-04-28 12:31:00,
2013-04-28 06:36:00,39.2,13.9,30.17,West,278,0.0,2.0,35,0.00,,,0.00,25,WeatherCatV1.15B25,2013-04-28 12:36:00,
2013-04-28 06:41:00,39.1,13.8,30.17,West,278,0.0,0.0,35,0.00,,,0.00,26,WeatherCatV1.15B25,2013-04-28 12:41:00,
2013-04-28 06:46:00,38.9,14.2,30.17,West,278,2.0,4.0,36,0.00,,,0.00,30,WeatherCatV1.15B25,2013-04-28 12:46:00,
2013-04-28 06:51:00,38.8,13.5,30.17,West,278,0.0,0.0,35,0.00,,,0.00,32,WeatherCatV1.15B25,2013-04-28 12:51:00,
2013-04-28 06:56:00,38.5,15.1,30.17,West,260,0.0,3.0,38,0.00,,,0.00,37,WeatherCatV1.15B25,2013-04-28 12:56:00,
2013-04-28 07:01:00,38.0,15.9,30.18,West,260,1.0,4.0,40,0.00,,,0.00,39,WeatherCatV1.15B25,2013-04-28 13:01:00,
2013-04-28 07:06:00,37.6,16.1,30.18,South,185,0.0,2.0,41,0.00,,,0.00,151,WeatherCatV1.15B25,2013-04-28 13:06:00,
2013-04-28 07:11:00,37.9,16.3,30.18,South,186,0.0,2.0,41,0.00,,,0.00,169,WeatherCatV1.15B25,2013-04-28 13:11:00,
2013-04-28 07:16:00,38.6,16.4,30.18,South,185,5.0,5.0,40,0.00,,,0.00,187,WeatherCatV1.15B25,2013-04-28 13:16:00,
2013-04-28 07:21:00,39.3,15.8,30.18,South,184,1.0,5.0,38,0.00,,,0.00,206,WeatherCatV1.15B25,2013-04-28 13:21:00,
2013-04-28 07:26:00,39.8,15.7,30.18,South,184,2.0,6.0,37,0.00,,,0.00,225,WeatherCatV1.15B25,2013-04-28 13:26:00,
2013-04-28 07:31:00,40.3,16.1,30.18,South,184,0.0,2.0,37,0.00,,,0.00,243,WeatherCatV1.15B25,2013-04-28 13:31:00,
2013-04-28 07:36:00,40.8,15.9,30.18,South,184,0.0,2.0,36,0.00,,,0.00,262,WeatherCatV1.15B25,2013-04-28 13:36:00,
2013-04-28 07:41:00,41.2,16.3,30.18,South,184,1.0,2.0,36,0.00,,,0.00,282,WeatherCatV1.15B25,2013-04-28 13:41:00,
2013-04-28 07:46:00,41.8,14.8,30.18,South,184,0.0,0.0,33,0.00,,,0.00,301,WeatherCatV1.15B25,2013-04-28 13:46:00,
2013-04-28 07:51:00,42.9,17.2,30.18,South,184,0.0,0.0,35,0.00,,,0.00,320,WeatherCatV1.15B25,2013-04-28 13:51:00,
2013-04-28 07:56:00,43.8,16.6,30.18,South,184,0.0,0.0,33,0.00,,,0.00,340,WeatherCatV1.15B25,2013-04-28 13:56:00,
2013-04-28 08:01:00,45.1,17.7,30.18,South,182,0.0,2.0,33,0.00,,,0.00,361,WeatherCatV1.15B25,2013-04-28 14:01:00,
2013-04-28 08:06:00,46.0,17.1,30.18,South,182,0.0,0.0,31,0.00,,,0.00,378,WeatherCatV1.15B25,2013-04-28 14:06:00,
2013-04-28 08:11:00,46.8,17.8,30.18,South,184,2.0,3.0,31,0.00,,,0.00,398,WeatherCatV1.15B25,2013-04-28 14:11:00,
2013-04-28 08:16:00,47.3,17.5,30.18,South,184,0.0,0.0,30,0.00,,,0.00,415,WeatherCatV1.15B25,2013-04-28 14:16:00,
2013-04-28 08:21:00,47.9,15.5,30.18,South,184,0.0,0.0,27,0.00,,,0.00,433,WeatherCatV1.15B25,2013-04-28 14:21:00,
2013-04-28 08:26:00,48.9,16.4,30.18,SE,131,0.0,1.0,27,0.00,,,0.00,452,WeatherCatV1.15B25,2013-04-28 14:26:00,
2013-04-28 08:31:00,49.8,15.4,30.18,SE,131,0.0,3.0,25,0.00,,,0.00,472,WeatherCatV1.15B25,2013-04-28 14:31:00,
2013-04-28 08:36:00,49.9,16.4,30.18,SE,131,0.0,3.0,26,0.00,,,0.00,489,WeatherCatV1.15B25,2013-04-28 14:36:00,
2013-04-28 08:41:00,50.5,16.0,30.18,SE,131,3.0,5.0,25,0.00,,,0.00,505,WeatherCatV1.15B25,2013-04-28 14:41:00,
2013-04-28 08:46:00,50.8,13.3,30.18,SE,131,6.0,7.0,22,0.00,,,0.00,523,WeatherCatV1.15B25,2013-04-28 14:46:00,
2013-04-28 08:51:00,50.8,14.4,30.18,ESE,123,6.0,7.0,23,0.00,,,0.00,538,WeatherCatV1.15B25,2013-04-28 14:51:00,
2013-04-28 08:56:00,50.7,15.2,30.18,ESE,123,0.0,0.0,24,0.00,,,0.00,549,WeatherCatV1.15B25,2013-04-28 14:56:00,
2013-04-28 09:01:00,51.3,14.8,30.17,ESE,123,3.0,4.0,23,0.00,,,0.00,567,WeatherCatV1.15B25,2013-04-28 15:01:00,
2013-04-28 09:06:00,51.7,15.1,30.17,ESE,123,5.0,6.0,23,0.00,,,0.00,582,WeatherCatV1.15B25,2013-04-28 15:06:00,
2013-04-28 09:11:00,52.0,14.4,30.17,ESE,119,6.0,6.0,22,0.00,,,0.00,591,WeatherCatV1.15B25,2013-04-28 15:11:00,
2013-04-28 09:16:00,52.6,13.8,30.17,ESE,119,3.0,8.0,21,0.00,,,0.00,609,WeatherCatV1.15B25,2013-04-28 15:16:00,
2013-04-28 09:21:00,53.3,15.4,30.17,ESE,113,2.0,7.0,22,0.00,,,0.00,621,WeatherCatV1.15B25,2013-04-28 15:21:00,
2013-04-28 09:26:00,53.9,14.9,30.17,ESE,114,6.0,6.0,21,0.00,,,0.00,637,WeatherCatV1.15B25,2013-04-28 15:26:00,
2013-04-28 09:31:00,54.2,16.2,30.17,SSE,162,12.0,12.0,22,0.00,,,0.00,653,WeatherCatV1.15B25,2013-04-28 15:31:00,
2013-04-28 09:36:00,54.1,17.1,30.17,East,100,5.0,14.0,23,0.00,,,0.00,669,WeatherCatV1.15B25,2013-04-28 15:36:00,
2013-04-28 09:41:00,54.8,16.7,30.17,East,85,5.0,7.0,22,0.00,,,0.00,681,WeatherCatV1.15B25,2013-04-28 15:41:00,
2013-04-28 09:46:00,55.1,17.0,30.16,East,85,7.0,8.0,22,0.00,,,0.00,699,WeatherCatV1.15B25,2013-04-28 15:46:00,
2013-04-28 09:51:00,55.4,17.2,30.16,ESE,121,8.0,12.0,22,0.00,,,0.00,713,WeatherCatV1.15B25,2013-04-28 15:51:00,
2013-04-28 09:56:00,55.4,16.1,30.16,ESE,104,2.0,12.0,21,0.00,,,0.00,725,WeatherCatV1.15B25,2013-04-28 15:56:00,
2013-04-28 10:01:00,56.0,15.5,30.16,SE,130,0.0,10.0,20,0.00,,,0.00,741,WeatherCatV1.15B25,2013-04-28 16:01:00,
2013-04-28 10:06:00,56.9,16.3,30.16,ESE,119,6.0,10.0,20,0.00,,,0.00,751,WeatherCatV1.15B25,2013-04-28 16:06:00,
2013-04-28 10:11:00,57.2,14.1,30.16,South,172,2.0,2.0,18,0.00,,,0.00,764,WeatherCatV1.15B25,2013-04-28 16:11:00,
2013-04-28 10:16:00,57.6,15.7,30.15,NNE,13,4.0,7.0,19,0.00,,,0.00,779,WeatherCatV1.15B25,2013-04-28 16:16:00,
2013-04-28 10:21:00,58.9,15.5,30.15,North,354,15.0,15.0,18,0.00,,,0.00,792,WeatherCatV1.15B25,2013-04-28 16:21:00,
2013-04-28 10:26:00,58.7,14.0,30.15,West,270,6.0,12.0,17,0.00,,,0.00,806,WeatherCatV1.15B25,2013-04-28 16:26:00,
2013-04-28 10:31:00,59.3,13.1,30.15,SW,234,7.0,19.0,16,0.00,,,0.00,815,WeatherCatV1.15B25,2013-04-28 16:31:00,
2013-04-28 10:36:00,59.3,11.7,30.15,NNW,339,8.0,17.0,15,0.00,,,0.00,829,WeatherCatV1.15B25,2013-04-28 16:36:00,
2013-04-28 10:41:00,59.5,11.8,30.15,WNW,296,8.0,11.0,15,0.00,,,0.00,838,WeatherCatV1.15B25,2013-04-28 16:41:00,
2013-04-28 10:46:00,59.6,11.9,30.14,NNW,332,10.0,17.0,15,0.00,,,0.00,846,WeatherCatV1.15B25,2013-04-28 16:46:00,
2013-04-28 10:51:00,59.9,12.2,30.14,NW,316,8.0,19.0,15,0.00,,,0.00,860,WeatherCatV1.15B25,2013-04-28 16:51:00,
2013-04-28 10:56:00,60.1,13.8,30.14,WSW,250,7.0,12.0,16,0.00,,,0.00,869,WeatherCatV1.15B25,2013-04-28 16:56:00,
2013-04-28 11:01:00,60.2,13.9,30.15,NNW,328,12.0,14.0,16,0.00,,,0.00,883,WeatherCatV1.15B25,2013-04-28 17:01:00,
2013-04-28 11:06:00,60.1,13.8,30.15,North,0,10.0,19.0,16,0.00,,,0.00,890,WeatherCatV1.15B25,2013-04-28 17:06:00,
2013-04-28 11:11:00,60.4,14.0,30.15,NW,316,5.0,11.0,16,0.00,,,0.00,899,WeatherCatV1.15B25,2013-04-28 17:11:00,
2013-04-28 11:16:00,60.7,12.8,30.14,WSW,239,12.0,19.0,15,0.00,,,0.00,906,WeatherCatV1.15B25,2013-04-28 17:16:00,
2013-04-28 11:21:00,60.7,14.3,30.14,NW,322,7.0,13.0,16,0.00,,,0.00,913,WeatherCatV1.15B25,2013-04-28 17:21:00,
2013-04-28 11:26:00,61.2,14.7,30.14,NNW,329,8.0,17.0,16,0.00,,,0.00,920,WeatherCatV1.15B25,2013-04-28 17:26:00,
2013-04-28 11:31:00,61.8,13.7,30.14,North,354,12.0,12.0,15,0.00,,,0.00,929,WeatherCatV1.15B25,2013-04-28 17:31:00,
2013-04-28 11:36:00,62.1,13.9,30.14,NW,320,11.0,17.0,15,0.00,,,0.00,936,WeatherCatV1.15B25,2013-04-28 17:36:00,
2013-04-28 11:41:00,62.3,14.1,30.14,NNW,344,10.0,13.0,15,0.00,,,0.00,941,WeatherCatV1.15B25,2013-04-28 17:41:00,
2013-04-28 11:46:00,62.3,12.5,30.14,NNW,330,6.0,18.0,14,0.00,,,0.00,950,WeatherCatV1.15B25,2013-04-28 17:46:00,
2013-04-28 11:51:00,62.4,14.2,30.14,WSW,243,7.0,13.0,15,0.00,,,0.00,950,WeatherCatV1.15B25,2013-04-28 17:51:00,
2013-04-28 11:56:00,62.1,12.4,30.14,NNW,333,5.0,16.0,14,0.00,,,0.00,959,WeatherCatV1.15B25,2013-04-28 17:56:00,
2013-04-28 12:01:00,62.1,12.4,30.14,North,359,14.0,21.0,14,0.00,,,0.00,964,WeatherCatV1.15B25,2013-04-28 18:01:00,
2013-04-28 12:06:00,62.7,14.4,30.14,NW,306,12.0,13.0,15,0.00,,,0.00,966,WeatherCatV1.15B25,2013-04-28 18:06:00,
2013-04-28 12:11:00,62.6,14.3,30.14,SW,222,1.0,5.0,15,0.00,,,0.00,971,WeatherCatV1.15B25,2013-04-28 18:11:00,
2013-04-28 12:16:00,62.3,15.6,30.14,WSW,253,5.0,15.0,16,0.00,,,0.00,975,WeatherCatV1.15B25,2013-04-28 18:16:00,
2013-04-28 12:21:00,62.7,12.8,30.14,North,349,3.0,8.0,14,0.00,,,0.00,978,WeatherCatV1.15B25,2013-04-28 18:21:00,
2013-04-28 12:23:00,62.9,13.0,30.14,North,350,0.0,6.0,14,0.00,,,0.00,978,WeatherCatV1.15B25,2013-04-28 18:23:00,
2013-04-28 12:28:00,63.1,14.7,30.14,West,261,10.0,13.0,15,0.00,,,0.00,982,WeatherCatV1.15B25,2013-04-28 18:28:00,
2013-04-28 12:33:00,62.9,11.3,30.13,NNW,342,13.0,16.0,13,0.00,,,0.00,987,WeatherCatV1.15B25,2013-04-28 18:33:00,
2013-04-28 12:38:00,63.5,11.8,30.13,NNW,346,3.0,14.0,13,0.00,,,0.00,987,WeatherCatV1.15B25,2013-04-28 18:38:00,
2013-04-28 12:43:00,64.0,13.9,30.13,NW,309,2.0,6.0,14,0.00,,,0.00,989,WeatherCatV1.15B25,2013-04-28 18:43:00,
2013-04-28 12:48:00,64.0,15.4,30.12,WSW,240,3.0,11.0,15,0.00,,,0.00,991,WeatherCatV1.15B25,2013-04-28 18:48:00,
2013-04-28 12:53:00,64.0,18.3,30.12,SW,232,0.0,7.0,17,0.00,,,0.00,991,WeatherCatV1.15B25,2013-04-28 18:53:00,
2013-04-28 12:58:00,64.3,14.1,30.12,North,349,5.0,11.0,14,0.00,,,0.00,991,WeatherCatV1.15B25,2013-04-28 18:58:00,
2013-04-28 13:03:00,63.7,15.2,30.12,SSW,203,7.0,14.0,15,0.00,,,0.00,992,WeatherCatV1.15B25,2013-04-28 19:03:00,
2013-04-28 13:08:00,63.2,14.8,30.12,WSW,244,7.0,16.0,15,0.00,,,0.00,989,WeatherCatV1.15B25,2013-04-28 19:08:00,
2013-04-28 13:13:00,62.9,16.0,30.12,West,261,11.0,12.0,16,0.00,,,0.00,987,WeatherCatV1.15B25,2013-04-28 19:13:00,
2013-04-28 13:18:00,63.4,15.0,30.12,West,260,5.0,13.0,15,0.00,,,0.00,982,WeatherCatV1.15B25,2013-04-28 19:18:00,
2013-04-28 13:23:00,63.1,14.7,30.12,SSW,210,7.0,19.0,15,0.00,,,0.00,984,WeatherCatV1.15B25,2013-04-28 19:23:00,
2013-04-28 13:28:00,63.5,15.0,30.12,West,278,11.0,11.0,15,0.00,,,0.00,980,WeatherCatV1.15B25,2013-04-28 19:28:00,
2013-04-28 13:33:00,64.0,15.4,30.11,West,261,16.0,19.0,15,0.00,,,0.00,978,WeatherCatV1.15B25,2013-04-28 19:33:00,
2013-04-28 13:38:00,63.9,13.8,30.11,West,267,14.0,22.0,14,0.00,,,0.00,975,WeatherCatV1.15B25,2013-04-28 19:38:00,
2013-04-28 13:43:00,63.5,15.0,30.11,West,260,10.0,20.0,15,0.00,,,0.00,975,WeatherCatV1.15B25,2013-04-28 19:43:00,
2013-04-28 13:48:00,63.5,16.5,30.11,SSW,206,12.0,16.0,16,0.00,,,0.00,968,WeatherCatV1.15B25,2013-04-28 19:48:00,
2013-04-28 13:53:00,63.9,15.4,30.11,WSW,254,10.0,21.0,15,0.00,,,0.00,964,WeatherCatV1.15B25,2013-04-28 19:53:00,
2013-04-28 13:58:00,64.0,13.9,30.11,NW,326,6.0,6.0,14,0.00,,,0.00,964,WeatherCatV1.15B25,2013-04-28 19:58:00,
2013-04-28 14:03:00,64.0,13.9,30.11,WNW,299,11.0,21.0,14,0.00,,,0.00,955,WeatherCatV1.15B25,2013-04-28 20:03:00,
2013-04-28 14:08:00,64.2,15.6,30.11,NW,311,9.0,16.0,15,0.00,,,0.00,948,WeatherCatV1.15B25,2013-04-28 20:08:00,
2013-04-28 14:13:00,64.2,15.6,30.11,NW,323,14.0,21.0,15,0.00,,,0.00,941,WeatherCatV1.15B25,2013-04-28 20:13:00,
2013-04-28 14:18:00,64.2,14.0,30.11,SW,232,10.0,21.0,14,0.00,,,0.00,938,WeatherCatV1.15B25,2013-04-28 20:18:00,
2013-04-28 14:23:00,63.9,15.4,30.11,West,268,10.0,24.0,15,0.00,,,0.00,929,WeatherCatV1.15B25,2013-04-28 20:23:00,
2013-04-28 14:28:00,63.9,15.4,30.11,West,265,7.0,19.0,15,0.00,,,0.00,922,WeatherCatV1.15B25,2013-04-28 20:28:00,
2013-04-28 14:33:00,64.2,14.0,30.11,NW,304,7.0,20.0,14,0.00,,,0.00,917,WeatherCatV1.15B25,2013-04-28 20:33:00,
2013-04-28 14:38:00,64.7,16.0,30.11,West,265,6.0,12.0,15,0.00,,,0.00,906,WeatherCatV1.15B25,2013-04-28 20:38:00,
2013-04-28 14:43:00,64.8,16.1,30.11,WSW,254,7.0,7.0,15,0.00,,,0.00,899,WeatherCatV1.15B25,2013-04-28 20:43:00,
2013-04-28 14:48:00,65.0,16.2,30.10,WSW,247,12.0,16.0,15,0.00,,,0.00,892,WeatherCatV1.15B25,2013-04-28 20:48:00,
2013-04-28 14:53:00,64.8,14.5,30.10,SW,220,8.0,14.0,14,0.00,,,0.00,883,WeatherCatV1.15B25,2013-04-28 20:53:00,
2013-04-28 14:58:00,65.3,16.5,30.10,SSW,202,6.0,17.0,15,0.00,,,0.00,869,WeatherCatV1.15B25,2013-04-28 20:58:00,
2013-04-28 15:03:00,65.5,15.1,30.09,NNW,335,8.0,20.0,14,0.00,,,0.00,860,WeatherCatV1.15B25,2013-04-28 21:03:00,
2013-04-28 15:08:00,65.3,14.9,30.09,SW,227,10.0,26.0,14,0.00,,,0.00,850,WeatherCatV1.15B25,2013-04-28 21:08:00,
2013-04-28 15:13:00,64.8,14.5,30.09,West,270,11.0,17.0,14,0.00,,,0.00,839,WeatherCatV1.15B25,2013-04-28 21:13:00,
2013-04-28 15:18:00,65.0,14.7,30.09,NNW,329,7.0,18.0,14,0.00,,,0.00,829,WeatherCatV1.15B25,2013-04-28 21:18:00,
2013-04-28 15:23:00,65.2,16.4,30.09,West,270,12.0,12.0,15,0.00,,,0.00,815,WeatherCatV1.15B25,2013-04-28 21:23:00,
2013-04-28 15:28:00,65.2,14.8,30.09,SSW,208,2.0,16.0,14,0.00,,,0.00,804,WeatherCatV1.15B25,2013-04-28 21:28:00,
2013-04-28 15:33:00,65.3,14.9,30.08,SSW,209,8.0,15.0,14,0.00,,,0.00,790,WeatherCatV1.15B25,2013-04-28 21:33:00,
2013-04-28 15:38:00,65.3,14.9,30.08,SW,233,7.0,11.0,14,0.00,,,0.00,779,WeatherCatV1.15B25,2013-04-28 21:38:00,
2013-04-28 15:43:00,65.2,14.8,30.08,SSW,198,6.0,11.0,14,0.00,,,0.00,767,WeatherCatV1.15B25,2013-04-28 21:43:00,
2013-04-28 15:48:00,65.5,15.1,30.08,WNW,295,7.0,10.0,14,0.00,,,0.00,751,WeatherCatV1.15B25,2013-04-28 21:48:00,
2013-04-28 15:53:00,65.8,15.3,30.08,WSW,253,3.0,8.0,14,0.00,,,0.00,741,WeatherCatV1.15B25,2013-04-28 21:53:00,
2013-04-28 15:58:00,66.1,15.5,30.08,SW,219,6.0,6.0,14,0.00,,,0.00,727,WeatherCatV1.15B25,2013-04-28 21:58:00,
2013-04-28 16:03:00,66.3,15.7,30.07,South,188,6.0,10.0,14,0.00,,,0.00,716,WeatherCatV1.15B25,2013-04-28 22:03:00,
2013-04-28 16:08:00,66.3,15.7,30.07,West,280,10.0,20.0,14,0.00,,,0.00,704,WeatherCatV1.15B25,2013-04-28 22:08:00,
2013-04-28 16:13:00,65.5,15.1,30.07,WNW,296,15.0,17.0,14,0.00,,,0.00,695,WeatherCatV1.15B25,2013-04-28 22:13:00,
2013-04-28 16:18:00,65.3,14.9,30.07,West,264,4.0,17.0,14,0.00,,,0.00,672,WeatherCatV1.15B25,2013-04-28 22:18:00,
2013-04-28 16:23:00,65.2,14.8,30.07,SSW,205,6.0,6.0,14,0.00,,,0.00,658,WeatherCatV1.15B25,2013-04-28 22:23:00,
2013-04-28 16:28:00,64.7,14.4,30.07,South,179,8.0,16.0,14,0.00,,,0.00,642,WeatherCatV1.15B25,2013-04-28 22:28:00,
2013-04-28 16:33:00,64.7,16.0,30.07,South,182,12.0,14.0,15,0.00,,,0.00,637,WeatherCatV1.15B25,2013-04-28 22:33:00,
2013-04-28 16:38:00,65.3,16.5,30.07,West,264,4.0,14.0,15,0.00,,,0.00,614,WeatherCatV1.15B25,2013-04-28 22:38:00,
2013-04-28 16:43:00,65.6,15.1,30.07,SW,217,2.0,16.0,14,0.00,,,0.00,607,WeatherCatV1.15B25,2013-04-28 22:43:00,
2013-04-28 16:48:00,65.8,15.3,30.06,WSW,240,12.0,19.0,14,0.00,,,0.00,598,WeatherCatV1.15B25,2013-04-28 22:48:00,
2013-04-28 16:53:00,65.5,16.6,30.06,WNW,301,14.0,20.0,15,0.00,,,0.00,582,WeatherCatV1.15B25,2013-04-28 22:53:00,
2013-04-28 16:58:00,65.3,14.9,30.06,WSW,248,4.0,14.0,14,0.00,,,0.00,563,WeatherCatV1.15B25,2013-04-28 22:58:00,
2013-04-28 17:03:00,65.8,13.6,30.06,SW,230,5.0,8.0,13,0.00,,,0.00,533,WeatherCatV1.15B25,2013-04-28 23:03:00,
2013-04-28 17:08:00,66.0,13.8,30.06,WSW,256,12.0,16.0,13,0.00,,,0.00,523,WeatherCatV1.15B25,2013-04-28 23:08:00,
2013-04-28 17:13:00,66.1,13.8,30.06,SW,227,11.0,18.0,13,0.00,,,0.00,507,WeatherCatV1.15B25,2013-04-28 23:13:00,
2013-04-28 17:18:00,65.8,13.6,30.06,WSW,243,2.0,14.0,13,0.00,,,0.00,479,WeatherCatV1.15B25,2013-04-28 23:18:00,
2013-04-28 17:23:00,65.8,15.3,30.06,West,267,14.0,22.0,14,0.00,,,0.00,463,WeatherCatV1.15B25,2013-04-28 23:23:00,
2013-04-28 17:28:00,65.3,13.2,30.06,WSW,254,1.0,6.0,13,0.00,,,0.00,443,WeatherCatV1.15B25,2013-04-28 23:28:00,
2013-04-28 17:33:00,65.2,14.8,30.06,West,260,14.0,14.0,14,0.00,,,0.00,426,WeatherCatV1.15B25,2013-04-28 23:33:00,
2013-04-28 17:38:00,65.0,14.7,30.06,SSW,192,6.0,10.0,14,0.00,,,0.00,403,WeatherCatV1.15B25,2013-04-28 23:38:00,
2013-04-28 17:43:00,65.0,14.7,30.06,WNW,287,3.0,10.0,14,0.00,,,0.00,401,WeatherCatV1.15B25,2013-04-28 23:43:00,
2013-04-28 17:48:00,64.8,14.5,30.06,WSW,241,8.0,20.0,14,0.00,,,0.00,373,WeatherCatV1.15B25,2013-04-28 23:48:00,
2013-04-28 17:53:00,64.8,14.5,30.06,West,268,4.0,5.0,14,0.00,,,0.00,361,WeatherCatV1.15B25,2013-04-28 23:53:00,
2013-04-28 17:58:00,65.5,15.1,30.06,SW,222,8.0,8.0,14,0.00,,,0.00,338,WeatherCatV1.15B25,2013-04-28 23:58:00,
2013-04-28 18:03:00,65.0,14.7,30.06,SW,224,8.0,11.0,14,0.00,,,0.00,324,WeatherCatV1.15B25,2013-04-29 00:03:00,
2013-04-28 18:08:00,64.7,14.4,30.06,SSW,208,3.0,8.0,14,0.00,,,0.00,306,WeatherCatV1.15B25,2013-04-29 00:08:00,
2013-04-28 18:13:00,64.7,14.4,30.06,NW,309,7.0,12.0,14,0.00,,,0.00,287,WeatherCatV1.15B25,2013-04-29 00:13:00,
2013-04-28 18:18:00,64.8,14.5,30.06,WNW,285,5.0,10.0,14,0.00,,,0.00,269,WeatherCatV1.15B25,2013-04-29 00:18:00,
2013-04-28 18:23:00,65.2,14.8,30.06,West,265,6.0,7.0,14,0.00,,,0.00,250,WeatherCatV1.15B25,2013-04-29 00:23:00,
2013-04-28 18:28:00,65.0,14.7,30.06,SSW,202,8.0,11.0,14,0.00,,,0.00,194,WeatherCatV1.15B25,2013-04-29 00:28:00,
2013-04-28 18:33:00,63.9,13.8,30.05,WSW,240,10.0,12.0,14,0.00,,,0.00,195,WeatherCatV1.15B25,2013-04-29 00:33:00,
2013-04-28 18:38:00,63.2,14.8,30.05,SW,227,9.0,12.0,15,0.00,,,0.00,194,WeatherCatV1.15B25,2013-04-29 00:38:00,
2013-04-28 18:43:00,63.1,14.7,30.05,West,265,5.0,12.0,15,0.00,,,0.00,179,WeatherCatV1.15B25,2013-04-29 00:43:00,
2013-04-28 18:48:00,62.9,14.6,30.06,WSW,243,0.0,6.0,15,0.00,,,0.00,162,WeatherCatV1.15B25,2013-04-29 00:48:00,
2013-04-28 18:53:00,63.1,14.7,30.06,WSW,243,0.0,6.0,15,0.00,,,0.00,146,WeatherCatV1.15B25,2013-04-29 00:53:00,
2013-04-28 18:58:00,62.9,14.6,30.06,WSW,243,0.0,0.0,15,0.00,,,0.00,33,WeatherCatV1.15B25,2013-04-29 00:58:00,
2013-04-28 19:03:00,62.3,15.6,30.05,WSW,243,0.0,1.0,16,0.00,,,0.00,30,WeatherCatV1.15B25,2013-04-29 01:03:00,
2013-04-28 19:08:00,60.9,17.1,30.05,WSW,243,2.0,4.0,18,0.00,,,0.00,28,WeatherCatV1.15B25,2013-04-29 01:08:00,
2013-04-28 19:13:00,59.6,16.1,30.05,West,280,5.0,10.0,18,0.00,,,0.00,26,WeatherCatV1.15B25,2013-04-29 01:13:00,
2013-04-28 19:18:00,59.3,15.8,30.06,NW,304,2.0,6.0,18,0.00,,,0.00,25,WeatherCatV1.15B25,2013-04-29 01:18:00,
2013-04-28 19:23:00,58.7,16.6,30.06,NW,304,4.0,6.0,19,0.00,,,0.00,23,WeatherCatV1.15B25,2013-04-29 01:23:00,
2013-04-28 19:28:00,58.1,16.1,30.06,NW,315,5.0,8.0,19,0.00,,,0.00,21,WeatherCatV1.15B25,2013-04-29 01:28:00,
2013-04-28 19:33:00,57.5,16.8,30.06,NW,315,2.0,4.0,20,0.00,,,0.00,16,WeatherCatV1.15B25,2013-04-29 01:33:00,
2013-04-28 19:38:00,56.7,16.1,30.06,NW,315,1.0,6.0,20,0.00,,,0.00,14,WeatherCatV1.15B25,2013-04-29 01:38:00,
2013-04-28 19:43:00,56.2,16.8,30.06,NW,315,7.0,7.0,21,0.00,,,0.00,11,WeatherCatV1.15B25,2013-04-29 01:43:00,
2013-04-28 19:48:00,55.7,16.4,30.07,NNW,332,5.0,10.0,21,0.00,,,0.00,7,WeatherCatV1.15B25,2013-04-29 01:48:00,
2013-04-28 19:53:00,55.4,17.2,30.07,NNW,340,6.0,7.0,22,0.00,,,0.00,5,WeatherCatV1.15B25,2013-04-29 01:53:00,
2013-04-28 19:57:00,55.1,17.0,30.07,NNW,346,8.0,10.0,22,0.00,,,0.00,0,WeatherCatV1.15B25,2013-04-29 01:57:00,
2013-04-28 20:02:00,54.8,17.7,30.07,NNW,332,0.0,6.0,23,0.00,,,0.00,0,WeatherCatV1.15B25,2013-04-29 02:02:00,
2013-04-28 20:08:00,54.4,17.4,30.07,WNW,302,3.0,4.0,23,0.00,,,0.00,0,WeatherCatV1.15B25,2013-04-29 02:08:00,
2013-04-28 20:13:00,54.1,17.1,30.07,WNW,302,0.0,4.0,23,0.00,,,0.00,0,WeatherCatV1.15B25,2013-04-29 02:13:00,
2013-04-28 20:18:00,53.9,17.0,30.08,NW,325,0.0,7.0,23,0.00,,,0.00,0,WeatherCatV1.15B25,2013-04-29 02:18:00,
2013-04-28 20:23:00,53.8,16.9,30.08,NW,325,0.0,3.0,23,0.00,,,0.00,0,WeatherCatV1.15B25,2013-04-29 02:23:00,
2013-04-28 20:28:00,53.5,17.6,30.08,NW,325,5.0,6.0,24,0.00,,,0.00,0,WeatherCatV1.15B25,2013-04-29 02:28:00,
2013-04-28 20:33:00,53.1,17.3,30.08,NW,323,5.0,8.0,24,0.00,,,0.00,0,WeatherCatV1.15B25,2013-04-29 02:33:00,
2013-04-28 20:38:00,52.9,17.1,30.08,WNW,295,6.0,6.0,24,0.00,,,0.00,0,WeatherCatV1.15B25,2013-04-29 02:38:00,
2013-04-28 20:43:00,52.8,17.0,30.08,NNW,329,3.0,7.0,24,0.00,,,0.00,0,WeatherCatV1.15B25,2013-04-29 02:43:00,
2013-04-28 20:48:00,52.6,16.9,30.08,NNW,329,2.0,7.0,24,0.00,,,0.00,0,WeatherCatV1.15B25,2013-04-29 02:48:00,
2013-04-28 20:53:00,52.5,17.7,30.08,NW,313,6.0,7.0,25,0.00,,,0.00,0,WeatherCatV1.15B25,2013-04-29 02:53:00,
2013-04-28 20:58:00,52.5,17.7,30.08,WNW,296,3.0,6.0,25,0.00,,,0.00,0,WeatherCatV1.15B25,2013-04-29 02:58:00,
2013-04-28 21:03:00,52.5,17.7,30.08,NW,305,0.0,3.0,25,0.00,,,0.00,0,WeatherCatV1.15B25,2013-04-29 03:03:00,
2013-04-28 21:08:00,52.5,17.7,30.08,NW,305,3.0,5.0,25,0.00,,,0.00,0,WeatherCatV1.15B25,2013-04-29 03:08:00,
2013-04-28 21:13:00,52.6,17.8,30.08,North,356,0.0,14.0,25,0.00,,,0.00,0,WeatherCatV1.15B25,2013-04-29 03:13:00,
2013-04-28 21:18:00,52.6,17.8,30.08,NW,315,6.0,9.0,25,0.00,,,0.00,0,WeatherCatV1.15B25,2013-04-29 03:18:00,
2013-04-28 21:23:00,52.9,17.1,30.08,NW,304,6.0,7.0,24,0.00,,,0.00,0,WeatherCatV1.15B25,2013-04-29 03:23:00,
2013-04-28 21:28:00,53.2,17.4,30.08,West,278,2.0,7.0,24,0.00,,,0.00,0,WeatherCatV1.15B25,2013-04-29 03:28:00,
2013-04-28 21:33:00,53.1,17.3,30.08,NNW,329,5.0,8.0,24,0.00,,,0.00,0,WeatherCatV1.15B25,2013-04-29 03:33:00,
2013-04-28 21:38:00,52.9,18.1,30.08,North,0,8.0,11.0,25,0.00,,,0.00,0,WeatherCatV1.15B25,2013-04-29 03:38:00,
2013-04-28 21:43:00,53.2,17.4,30.08,North,352,12.0,12.0,24,0.00,,,0.00,0,WeatherCatV1.15B25,2013-04-29 03:43:00,
2013-04-28 21:48:00,53.6,17.7,30.08,North,0,7.0,9.0,24,0.00,,,0.00,0,WeatherCatV1.15B25,2013-04-29 03:48:00,
2013-04-28 21:53:00,53.2,18.3,30.08,NNW,335,2.0,6.0,25,0.00,,,0.00,0,WeatherCatV1.15B25,2013-04-29 03:53:00,
2013-04-28 21:58:00,52.3,17.5,30.08,NW,313,6.0,8.0,25,0.00,,,0.00,0,WeatherCatV1.15B25,2013-04-29 03:58:00,
2013-04-28 22:00:00,52.2,17.5,30.08,NW,313,3.0,6.0,25,0.00,,,0.00,0,WeatherCatV1.15B25,2013-04-29 04:00:00,
2013-04-28 22:01:00,52.0,17.3,30.08,WNW,295,4.0,8.0,25,0.00,,,0.00,0,WeatherCatV1.15B25,2013-04-29 04:01:00,
2013-04-28 22:06:00,52.0,17.3,30.08,WNW,295,5.0,6.0,25,0.00,,,0.00,0,WeatherCatV1.15B25,2013-04-29 04:06:00,
2013-04-28 22:11:00,52.0,17.3,30.08,West,270,2.0,3.0,25,0.00,,,0.00,0,WeatherCatV1.15B25,2013-04-29 04:11:00,
2013-04-28 22:16:00,51.9,17.2,30.08,West,268,8.0,8.0,25,0.00,,,0.00,0,WeatherCatV1.15B25,2013-04-29 04:16:00,
2013-04-28 22:21:00,51.7,17.0,30.08,WNW,287,5.0,7.0,25,0.00,,,0.00,0,WeatherCatV1.15B25,2013-04-29 04:21:00,
2013-04-28 22:26:00,51.7,17.0,30.08,WNW,302,2.0,8.0,25,0.00,,,0.00,0,WeatherCatV1.15B25,2013-04-29 04:26:00,
2013-04-28 22:31:00,51.6,16.9,30.08,NW,320,10.0,10.0,25,0.00,,,0.00,0,WeatherCatV1.15B25,2013-04-29 04:31:00,
2013-04-28 22:36:00,51.4,16.8,30.08,NW,325,2.0,11.0,25,0.00,,,0.00,0,WeatherCatV1.15B25,2013-04-29 04:36:00,
2013-04-28 22:41:00,51.3,16.7,30.08,NW,323,3.0,11.0,25,0.00,,,0.00,0,WeatherCatV1.15B25,2013-04-29 04:41:00,
2013-04-28 22:46:00,51.3,16.7,30.08,NNW,329,7.0,13.0,25,0.00,,,0.00,0,WeatherCatV1.15B25,2013-04-29 04:46:00,
2013-04-28 22:51:00,51.4,15.8,30.08,NW,323,6.0,17.0,24,0.00,,,0.00,0,WeatherCatV1.15B25,2013-04-29 04:51:00,
2013-04-28 22:56:00,51.6,16.0,30.08,NW,316,8.0,11.0,24,0.00,,,0.00,0,WeatherCatV1.15B25,2013-04-29 04:56:00,
2013-04-28 23:01:00,51.7,16.1,30.08,NNW,344,10.0,11.0,24,0.00,,,0.00,0,WeatherCatV1.15B25,2013-04-29 05:01:00,
2013-04-28 23:06:00,51.7,16.1,30.08,NW,315,6.0,13.0,24,0.00,,,0.00,0,WeatherCatV1.15B25,2013-04-29 05:06:00,
2013-04-28 23:11:00,51.7,16.1,30.08,NNW,333,5.0,11.0,24,0.00,,,0.00,0,WeatherCatV1.15B25,2013-04-29 05:11:00,
2013-04-28 23:16:00,51.7,16.1,30.08,West,271,4.0,8.0,24,0.00,,,0.00,0,WeatherCatV1.15B25,2013-04-29 05:16:00,
2013-04-28 23:21:00,51.9,16.3,30.08,NNW,328,0.0,8.0,24,0.00,,,0.00,0,WeatherCatV1.15B25,2013-04-29 05:21:00,
2013-04-28 23:26:00,51.7,16.1,30.08,NNW,335,0.0,5.0,24,0.00,,,0.00,0,WeatherCatV1.15B25,2013-04-29 05:26:00,
2013-04-28 23:31:00,51.7,16.1,30.07,NW,306,1.0,8.0,24,0.00,,,0.00,0,WeatherCatV1.15B25,2013-04-29 05:31:00,
2013-04-28 23:36:00,51.9,16.3,30.07,SW,219,2.0,8.0,24,0.00,,,0.00,0,WeatherCatV1.15B25,2013-04-29 05:36:00,
2013-04-28 23:41:00,51.7,16.1,30.07,NW,318,0.0,3.0,24,0.00,,,0.00,0,WeatherCatV1.15B25,2013-04-29 05:41:00,
2013-04-28 23:46:00,51.6,16.9,30.07,North,3,0.0,7.0,25,0.00,,,0.00,0,WeatherCatV1.15B25,2013-04-29 05:46:00,
2013-04-28 23:51:00,51.4,17.7,30.07,North,0,11.0,11.0,26,0.00,,,0.00,0,WeatherCatV1.15B25,2013-04-29 05:51:00,
2013-04-28 23:56:00,51.4,16.8,30.07,North,349,6.0,8.0,25,0.00,,,0.00,0,WeatherCatV1.15B25,2013-04-29 05:56:00,